[[{"header":{"parameterUnit":"m.s-1","parameterCategory":1,"la1":30.2991,"la2":30.254,"lo1":-89.0895,"lo2":-89.0444,"dy":0.0017,"dx":0.0017,"nx":28,"ny":28,"refTime":"2025-04-07T09:00:00:Z","depth":0,"parameterNumber":2,"parameterNumberName":"U-component_of_WINDS"},"data":[0,0,0,0,0,0,0,0,0,0,0,0,0,0,0,0,0,0,0,0,0,0,0,0,0,0,0,0,0,0,0,0,0,0,0,0,0,0,0,0,0,0,0,0,0,0,0,0,0,0,0,0,0,0,0,0,0,0,5.5579,5.5582,0,5.5873,5.5876,5.5879,5.5915,5.5912,5.5909,5.5906,5.6203,5.6213,5.6224,0,0,0,0,0,0,0,0,0,0,0,0,0,5.5046,5.5056,5.5579,5.5582,5.5586,5.5872,5.5876,5.588,5.5915,5.5912,5.5908,5.5905,5.62,5.6212,5.6225,0,0,0,0,0,0,0,0,0,0,0,0,0,5.5302,5.5059,5.5578,5.5638,5.5646,5.5871,5.5876,5.5881,5.5916,5.5912,5.5907,5.5903,5.6196,5.6211,5.6227,5.6411,0,0,5.6275,5.6282,0,0,0,0,0,0,0,0,5.5288,5.5322,5.5626,5.5634,5.5644,5.5853,5.5797,5.6059,5.5917,5.5814,5.5906,5.5901,5.609,5.6114,5.6179,5.6425,5.6437,5.6277,5.6286,5.6293,5.6297,0,0,0,0,0,0,0,5.527,5.5309,5.5695,5.563,5.5641,5.565,5.5681,5.5847,5.5972,5.5822,5.5825,5.586,5.6094,5.6163,5.6186,5.6442,5.6276,5.629,5.63,5.6306,5.6856,5.686,0,0,0,0,0,0,5.5241,5.5294,5.5686,5.5704,5.5452,5.5663,5.5698,5.579,5.597,5.5994,5.5863,5.5861,5.6138,5.6167,5.6196,5.6425,5.6293,5.6308,5.6317,5.6851,5.6857,5.6862,0,0,0,0,0,0,5.523,5.5276,5.5674,5.55,5.5552,5.5677,5.5779,5.5798,5.5867,5.6002,5.6024,5.5911,5.6136,5.6174,5.6358,5.6436,5.6315,5.6329,5.6845,5.6852,5.686,5.6883,0,0,0,0,0,0,5.5214,5.5272,5.5343,5.5502,5.5561,5.5831,5.5784,5.5807,5.5895,5.5894,5.6052,5.6074,5.6135,5.6334,5.6374,5.6455,5.6342,5.6838,5.6848,5.6857,5.6876,5.689,5.6903,0,0,0,0,0,5.5195,5.5337,5.5347,5.5394,5.5653,5.5836,5.5869,5.5938,5.5901,5.5974,5.6061,5.6069,5.6421,5.6353,5.6398,5.6485,5.6834,5.6845,5.6856,5.6869,5.6887,5.6902,0,0,0,0,0,0,5.5183,5.5359,5.5371,5.5569,5.5687,5.5841,5.5935,5.5954,5.6084,5.6078,5.6156,5.6192,5.6373,5.6447,5.6368,5.6674,5.6624,5.6645,5.6618,5.6636,5.665,5.6628,5.6355,0,0,0,0,0,5.5203,5.5338,5.5484,5.5644,5.5703,5.5809,5.5891,5.5934,5.6059,5.6109,5.6209,5.6329,5.6467,5.6556,5.669,5.6887,5.6922,5.6969,5.6983,5.6993,5.701,5.7121,5.7144,5.69,5.69,5.6899,0,0,5.5246,5.5359,5.5439,5.5644,5.5741,5.5878,5.585,5.5996,5.6099,5.613,5.6311,5.6389,5.6528,5.672,5.6809,5.6788,5.7086,5.7008,5.7015,5.7027,5.7135,5.7158,5.7179,5.6907,5.6906,5.6905,0,0,5.5394,5.5493,5.5638,5.5736,5.5884,5.5954,5.5989,5.6141,5.6195,5.6377,5.6405,5.6527,5.6763,5.6862,5.6942,5.7131,5.7144,5.7172,5.7243,5.735,5.7369,5.7387,5.7454,5.7478,5.7189,5.7189,5.7189,0,5.5429,5.5637,5.571,5.5856,5.5946,5.5983,5.613,5.6221,5.6405,5.6466,5.6439,5.6737,5.6834,5.7049,5.7096,5.716,5.7202,5.7154,5.7361,5.7379,5.7397,5.7462,5.7487,5.7192,5.7191,5.7191,5.7191,0,5.5673,5.5817,5.5916,5.6095,5.6196,5.6341,5.6435,5.6529,5.6563,5.6636,5.6822,5.694,5.7099,5.7153,5.7187,5.7375,5.7357,5.7345,5.7296,5.7421,5.7484,5.7509,5.7195,5.7194,5.7194,5.7193,0,0,5.582,5.6038,5.6073,5.6155,5.6322,5.6435,5.6582,5.674,5.6819,5.6944,5.707,5.727,5.7261,5.7353,5.7399,5.7493,5.7636,5.747,5.7474,5.7496,5.785,5.7857,5.7885,5.7646,5.7651,5.7655,5.7838,0,5.5987,5.6253,5.6323,5.6548,5.6683,5.6722,5.685,5.6966,5.7039,5.7163,5.7242,5.7383,5.736,5.7416,5.7511,5.7598,5.7707,5.7586,5.7763,5.7768,5.7726,5.7918,5.7927,5.8094,5.7863,5.7867,5.787,0,5.6218,5.6351,5.659,5.6741,5.68,5.6915,5.7066,5.7184,5.7317,5.7363,5.7467,5.7505,5.766,5.7604,5.7819,5.7734,5.7811,5.7865,5.7873,5.7892,5.7826,5.7942,5.8149,5.8174,5.791,5.7906,5.7904,0,5.6302,5.654,5.6714,5.6783,5.6964,5.7044,5.7122,5.7251,5.7342,5.7474,5.7533,5.7681,5.7761,5.7874,5.7951,5.7902,5.8159,5.8109,5.8201,5.82,5.8253,5.8248,5.8475,5.8303,5.8302,5.8302,5.8301,0,5.6482,5.6626,5.6755,5.6862,5.7025,5.7105,5.7264,5.7344,5.7459,5.7582,5.7624,5.7738,5.7832,5.796,5.802,5.8189,5.8225,5.8266,5.8281,5.8263,5.8258,5.8313,5.8304,5.8309,5.8307,5.8306,5.8305,0,5.6602,5.6694,5.6886,5.7043,5.7085,5.7199,5.7332,5.7438,5.7512,5.7668,5.7708,5.7825,5.7977,5.8065,5.8256,5.8297,5.8485,5.8494,5.844,5.8447,5.8534,5.8525,5.8804,5.8845,5.8646,5.8647,5.8649,0,5.671,5.6823,5.6992,5.7078,5.7159,5.7297,5.7391,5.7474,5.7569,5.773,5.7816,5.7971,5.81,5.8341,5.8442,5.8589,5.8601,5.8689,5.8623,5.8602,5.8603,5.8595,5.8607,5.87,5.8702,5.8703,5.8704,0,5.6893,5.6934,5.7067,5.7218,5.7329,5.7452,5.7573,5.7641,5.7744,5.785,5.8007,5.8107,5.8303,5.8457,5.8612,5.8692,5.8716,5.8725,5.8754,5.8736,5.8701,5.8721,5.8471,5.8718,5.8716,5.8715,5.8715,5.8714,5.7011,5.7114,5.7249,5.7398,5.7498,5.7611,5.7718,5.7807,5.794,5.8108,5.8149,5.8314,5.8445,5.8657,5.8741,5.8871,5.8856,5.8898,5.8909,5.8918,5.8921,5.8681,5.89,5.89,5.8899,5.8899,5.8899,0,5.7196,5.7286,5.7422,5.7592,5.7708,5.7723,5.7858,5.7954,5.81,5.8221,5.8347,5.8528,5.8678,5.8792,5.8945,5.9027,5.9042,5.9064,5.9059,5.9077,5.8925,5.8885,5.905,5.905,5.905,5.905,5.905,5.905,5.7306,5.7481,5.7538,5.7763,5.7851,5.8015,5.8091,5.8196,5.8293,5.8494,5.8619,5.8693,5.8812,5.8974,5.9112,5.9142,5.9196,5.9217,5.9248,5.9104,5.9088,5.9072,5.9034,5.9228,5.9228,5.9389,5.9391,5.9392]},{"header":{"parameterUnit":"m.s-1","parameterCategory":1,"la1":30.2991,"la2":30.254,"lo1":-89.0895,"lo2":-89.0444,"dy":0.0017,"dx":0.0017,"nx":28,"ny":28,"refTime":"2025-04-07T09:00:00:Z","depth":0,"parameterNumber":3,"parameterNumberName":"V-component_of_WINDS"},"data":[0,0,0,0,0,0,0,0,0,0,0,0,0,0,0,0,0,0,0,0,0,0,0,0,0,0,0,0,0,0,0,0,0,0,0,0,0,0,0,0,0,0,0,0,0,0,0,0,0,0,0,0,0,0,0,0,0,0,-5.0464,-5.0466,0,-5.0648,-5.065,-5.0653,-5.0623,-5.062,-5.0617,-5.0614,-5.0807,-5.0815,-5.0823,0,0,0,0,0,0,0,0,0,0,0,0,0,-5.0091,-5.0098,-5.0464,-5.0466,-5.0468,-5.0648,-5.0651,-5.0653,-5.0624,-5.062,-5.0616,-5.0612,-5.0804,-5.0814,-5.0824,0,0,0,0,0,0,0,0,0,0,0,0,0,-5.0262,-5.01,-5.0463,-5.0475,-5.0478,-5.0647,-5.0651,-5.0654,-5.0624,-5.062,-5.0615,-5.061,-5.0801,-5.0813,-5.0825,-5.0996,0,0,-5.0862,-5.0868,0,0,0,0,0,0,0,0,-5.0252,-5.0276,-5.0471,-5.0475,-5.0478,-5.0608,-5.059,-5.0769,-5.0626,-5.0569,-5.0613,-5.0608,-5.0745,-5.0761,-5.0807,-5.1005,-5.1013,-5.0863,-5.0871,-5.0876,-5.0879,0,0,0,0,0,0,0,-5.024,-5.0267,-5.0537,-5.0474,-5.0478,-5.0473,-5.0492,-5.0624,-5.0682,-5.0574,-5.0572,-5.0594,-5.0746,-5.0795,-5.0811,-5.1016,-5.0863,-5.0874,-5.0881,-5.0886,-5.1364,-5.1369,0,0,0,0,0,0,-5.0224,-5.0258,-5.0531,-5.0542,-5.0351,-5.0483,-5.0505,-5.0571,-5.068,-5.0692,-5.0598,-5.0592,-5.0776,-5.0797,-5.0818,-5.1025,-5.0876,-5.0887,-5.0894,-5.1359,-5.1365,-5.1371,0,0,0,0,0,0,-5.0216,-5.0249,-5.0524,-5.04,-5.0434,-5.0495,-5.057,-5.0577,-5.0626,-5.0698,-5.0709,-5.0637,-5.0774,-5.0801,-5.0952,-5.1031,-5.0893,-5.0904,-5.1353,-5.1361,-5.1368,-5.1441,0,0,0,0,0,0,-5.0206,-5.0246,-5.0311,-5.0401,-5.0441,-5.0653,-5.0575,-5.0584,-5.0647,-5.0641,-5.0738,-5.0749,-5.0772,-5.0934,-5.0964,-5.1046,-5.0913,-5.1346,-5.1356,-5.1366,-5.1432,-5.1451,-5.1467,0,0,0,0,0,-5.0193,-5.0325,-5.0314,-5.0347,-5.0523,-5.0658,-5.0681,-5.0703,-5.0653,-5.0719,-5.0766,-5.0746,-5.1018,-5.0949,-5.0983,-5.107,-5.1341,-5.1353,-5.1365,-5.1424,-5.1447,-5.1467,0,0,0,0,0,0,-5.0244,-5.0337,-5.0326,-5.0491,-5.0567,-5.0653,-5.0737,-5.0726,-5.0819,-5.0809,-5.0834,-5.0856,-5.1009,-5.1055,-5.0977,-5.1241,-5.1172,-5.1192,-5.1206,-5.1228,-5.1246,-5.1232,-5.0923,0,0,0,0,0,-5.0274,-5.0375,-5.0451,-5.059,-5.0628,-5.0676,-5.0736,-5.0746,-5.0826,-5.0858,-5.0915,-5.0995,-5.1098,-5.1166,-5.1264,-5.1438,-5.146,-5.1515,-5.1532,-5.1546,-5.1563,-5.1659,-5.1685,-5.1411,-5.1411,-5.1411,0,0,-5.0339,-5.0402,-5.0464,-5.0602,-5.0662,-5.0767,-5.0703,-5.0817,-5.0896,-5.0876,-5.1022,-5.1067,-5.1157,-5.132,-5.1395,-5.1363,-5.1643,-5.1561,-5.1572,-5.1582,-5.1674,-5.17,-5.1723,-5.1419,-5.1418,-5.1417,0,0,-5.051,-5.0567,-5.0689,-5.0749,-5.084,-5.0871,-5.09,-5.0988,-5.1016,-5.1163,-5.115,-5.1244,-5.1421,-5.1486,-5.1543,-5.1738,-5.1724,-5.1769,-5.1861,-5.1954,-5.1976,-5.1995,-5.2066,-5.2091,-5.1786,-5.1786,-5.1786,0,-5.0579,-5.0735,-5.0753,-5.0869,-5.093,-5.0915,-5.1039,-5.1098,-5.1217,-5.126,-5.1222,-5.1443,-5.1503,-5.1682,-5.1729,-5.1775,-5.181,-5.1759,-5.1971,-5.199,-5.2009,-5.2076,-5.2103,-5.1791,-5.179,-5.179,-5.1789,0,-5.0816,-5.0925,-5.1012,-5.1126,-5.1197,-5.1316,-5.1354,-5.1424,-5.1428,-5.1463,-5.1613,-5.1684,-5.1797,-5.184,-5.1846,-5.202,-5.1997,-5.1965,-5.1897,-5.2039,-5.2103,-5.2129,-5.1798,-5.1796,-5.1795,-5.1793,0,0,-5.1026,-5.1146,-5.1179,-5.123,-5.1328,-5.1414,-5.1533,-5.1642,-5.1702,-5.1784,-5.1886,-5.2035,-5.2006,-5.207,-5.2082,-5.2164,-5.2315,-5.2122,-5.2124,-5.2156,-5.2513,-5.2537,-5.2567,-5.2306,-5.2311,-5.2315,-5.2505,0,-5.1206,-5.1415,-5.1435,-5.1622,-5.1724,-5.171,-5.1814,-5.1887,-5.1923,-5.2015,-5.2056,-5.2162,-5.2114,-5.2153,-5.2233,-5.228,-5.2387,-5.2266,-5.2402,-5.2407,-5.2381,-5.26,-5.2627,-5.2803,-5.253,-5.2535,-5.2538,0,-5.1446,-5.1533,-5.1731,-5.1815,-5.1858,-5.1951,-5.2052,-5.214,-5.2223,-5.2243,-5.2314,-5.2316,-5.244,-5.2366,-5.2538,-5.2455,-5.2512,-5.2543,-5.2551,-5.2566,-5.2482,-5.2622,-5.286,-5.2887,-5.2577,-5.2574,-5.2571,0,-5.158,-5.1747,-5.1887,-5.1931,-5.2033,-5.2098,-5.2144,-5.2221,-5.2286,-5.2375,-5.2417,-5.252,-5.2577,-5.2658,-5.2688,-5.2631,-5.2859,-5.2787,-5.2881,-5.288,-5.2931,-5.2927,-5.3182,-5.2965,-5.2965,-5.2964,-5.2964,0,-5.178,-5.1902,-5.1949,-5.2035,-5.2171,-5.2193,-5.2328,-5.237,-5.2439,-5.2534,-5.2529,-5.2619,-5.2653,-5.2749,-5.2773,-5.2912,-5.2938,-5.2959,-5.2964,-5.2961,-5.2958,-5.2999,-5.2988,-5.2971,-5.297,-5.2968,-5.2967,0,-5.1954,-5.199,-5.2141,-5.2224,-5.2248,-5.2345,-5.2417,-5.2501,-5.2535,-5.2656,-5.2686,-5.274,-5.2853,-5.289,-5.3027,-5.3043,-5.3206,-5.32,-5.3178,-5.3179,-5.3271,-5.3262,-5.3563,-5.3604,-5.3358,-5.336,-5.3362,0,-5.208,-5.2173,-5.2266,-5.2328,-5.2376,-5.2477,-5.2542,-5.2568,-5.2636,-5.2736,-5.2809,-5.292,-5.301,-5.3191,-5.3244,-5.3348,-5.3346,-5.3443,-5.3361,-5.3355,-5.3349,-5.3343,-5.3353,-5.3459,-5.3462,-5.3464,-5.3466,0,-5.2301,-5.2314,-5.2407,-5.2507,-5.2584,-5.2665,-5.2742,-5.2794,-5.2831,-5.2908,-5.3023,-5.3092,-5.3231,-5.3342,-5.3449,-5.3497,-5.3489,-5.3491,-5.3518,-5.3516,-5.35,-5.3511,-5.3221,-5.3484,-5.3482,-5.3481,-5.348,-5.3479,-5.2456,-5.2538,-5.2616,-5.272,-5.278,-5.2853,-5.2936,-5.298,-5.3075,-5.3189,-5.3198,-5.3322,-5.3402,-5.3544,-5.3598,-5.3696,-5.3668,-5.3708,-5.3718,-5.3728,-5.3736,-5.3483,-5.3715,-5.3714,-5.3714,-5.3714,-5.3713,0,-5.2677,-5.2726,-5.2822,-5.2929,-5.3012,-5.2994,-5.3079,-5.315,-5.3258,-5.3333,-5.3421,-5.3553,-5.366,-5.3721,-5.3829,-5.3896,-5.3894,-5.3923,-5.3919,-5.3931,-5.3753,-5.3719,-5.3922,-5.3922,-5.3922,-5.3922,-5.3922,-5.3922,-5.2802,-5.294,-5.2963,-5.3131,-5.318,-5.3299,-5.335,-5.3417,-5.3477,-5.3623,-5.3712,-5.375,-5.382,-5.3933,-5.4031,-5.4046,-5.4087,-5.4119,-5.4131,-5.3965,-5.3943,-5.3923,-5.3891,-5.4127,-5.4127,-5.4301,-5.4303,-5.4304]}]]